STARLINK-1067, 44771

Orbit data source: Space-Track

STARLINK-1067, 44771 is a payload satellite owned by SpaceX/Seattle (US) in LEO that was launched on Mon, 11 Nov 2019 UTC via an FALCON 9 launch vehicle from the Air Force Eastern Test Range (AFETR). Payloads include a variety of satellites, spacecraft, and rockets equipped with specific instruments for various scientific and technological missions. These include communications satellites like Starlink; space stations such as the ISS; scientific satellites like the Hubble; Earth observation satellites from companies like Planet Labs, Umbra, and HawkEye 360; GPS; miniature CubeSats for education and research; and military/defense satellites.

Loading next visibility...
STARLINK-1067 details
Identifier
44771, 2019-074BL
Orbit
LEO
Last TLE update8 hours ago
Origin
Flag of USSpaceX/Seattle (US)
ManufacturerSpaceX/Seattle
MissionOperational Commercial Communications
Bus & MotorSTARLINK, Unknown motor
Mass260 kg wet, ~248 kg dry
Launch date (UTC)
2019-11-11 (5 years ago)
Launch vehicle
FALCON 9
Launch site
Air Force Eastern Test Range (AFETR)
Object type
Payload
Rocket body
Debris
Shape & HBRBox + 1 Pan, 8.86 m
Radar Cross Section13.562 m², Large (>1 m²)

Expand to show TLE details & history

TLE from 8 hours ago
0 STARLINK-1067
1 44771U 19074BL  24361.12611192  .00013956  00000-0  95390-3 0  9996
2 44771  53.0559  35.4043 0001288  97.2407 262.8728 15.06402956282262
Epoch: 2024-12-26T03:01Z
Definitive object data (Epoch: 2024-12-26T03:01:36.069Z)
Latitude-0.00008°
Longitude-105.10603°
Altitude548.193 km
Speed7.589 km/s
True Right ascension02h 21m 37s
True Declination0° 00' 00"
Sunlit
Object was in full shadow at TLE epoch
Visualization TLE readout
Latitude52.32418°
Longitude-31.0766°
Altitude552.672 km
Speed7.592 km/s
Apparent Right ascension02h 25m 53s
Apparent Declination19° 14' 12"
Sunlit
Object is in full shadow
Visualization observer readout
Local Sidereal Time10:42:09
Azimuth307.126° NW
Elevation-11.2°
Doppler factor1
Orbital elements
Apogee altitude548.365 km
Perigee altitude546.581 km
Semi-major axis6,925.61 km
Eccentricity0.0001288
Inclination53.0559°
RAAN35.4043°
Arg. of periapsis97.2407°
True anomaly262.85815°
Mean anomaly262.8728°
Eccentric anomaly262.86548°
Mean motion3.76579 °/min
BSTAR0.0009539
Orbital period95.6 mins
Loading maneuver chart data...

STARLINK-1067 Visibility forecast

Observer location: undefined°, undefined

Span
Click to sort rows by Start time (UTC) header in descending order
Start Az.
Max El. time (UTC)
Max El. Az.
Max El.
End time (UTC)
End Az.
6 mins2024-12-26 11:27:49.360Z325.995° NNW2024-12-26 11:30:49.360Z28.008° NE32.536°2024-12-26 11:33:49.360Z96.577° ESE
6 mins2024-12-26 13:07:49.360Z281.693° WNW2024-12-26 13:10:49.360Z214.907° SW26.349°2024-12-26 13:13:49.360Z167.636° S
6 mins2024-12-27 04:40:49.360Z200.592° SSW2024-12-27 04:42:49.360Z154.381° SSE36.211°2024-12-27 04:46:49.360Z61.234° ENE
5 mins2024-12-27 06:20:49.360Z286.429° WNW2024-12-27 06:22:49.360Z331.113° NNW25.979°2024-12-27 06:25:49.360Z28.817° NE
4 mins2024-12-27 09:42:49.360Z348.932° N2024-12-27 09:44:49.360Z23.36° NE15.557°2024-12-27 09:46:49.360Z53.429° ENE
|